| time (UTC) | temp F | wind direction | speed MPH | gust MPH | rain 1hr in | rain 24hr in | rain mn in | humidity % | barometer mb |
| 20260901103100 | 69 | 22 | 3.0 | 4.0 | 0.00 | 0.00 | 0.00 | 78 | 1023.3 |
| 20260901102020 | 69 | 42 | 2.0 | 4.0 | 0.00 | 0.00 | 0.00 | 77 | 1023.3 |
| 20260901101104 | 69 | 7 | 3.0 | 4.0 | 0.00 | 0.00 | 0.00 | 77 | 1023.3 |
| 20260901100109 | 69 | 41 | 1.0 | 3.0 | 0.00 | 0.00 | 0.00 | 78 | 1023.3 |
| 20260901095028 | 69 | 40 | 1.0 | 4.0 | 0.00 | 0.00 | 0.00 | 79 | 1023.4 |
| 20260901094052 | 67 | 37 | 1.0 | 2.0 | 0.00 | 0.00 | 0.00 | 81 | 1023.3 |
| 20260901093117 | 67 | 33 | 1.0 | 3.0 | 0.00 | 0.00 | 0.00 | 80 | 1023.4 |
| 20260901092037 | 69 | 15 | 1.0 | 3.0 | 0.00 | 0.00 | 0.00 | 77 | 1023.4 |
| 20260901091121 | 67 | 75 | 1.0 | 2.0 | 0.00 | 0.00 | 0.00 | 81 | 1023.3 |
| 20260901090021 | 65 | 55 | 1.0 | 2.0 | 0.00 | 0.00 | 0.00 | 84 | 1023.4 |
| 20260901085045 | 64 | 70 | 0.0 | 1.0 | 0.00 | 0.00 | 0.00 | 87 | 1023.3 |
| 20260901084108 | 64 | 51 | 0.0 | 1.0 | 0.00 | 0.00 | 0.00 | 89 | 1023.3 |
| 20260901083029 | 61 | 83 | 0.0 | 2.0 | 0.00 | 0.00 | 0.00 | 91 | 1023.3 |
| 20260901082114 | 60 | 79 | 1.0 | 2.0 | 0.00 | 0.00 | 0.00 | 92 | 1023.3 |
| 20260901081137 | 60 | 94 | 1.0 | 2.0 | 0.00 | 0.00 | 0.00 | 92 | 1023.3 |
| 20260901080036 | 59 | 85 | 1.0 | 3.0 | 0.00 | 0.00 | 0.00 | 93 | 1023.4 |
| 20260901075121 | 59 | 106 | 2.0 | 4.0 | 0.00 | 0.00 | 0.00 | 93 | 1023.2 |
| 20260901074021 | 58 | 141 | 3.0 | 4.0 | 0.00 | 0.00 | 0.00 | 93 | 1023.2 |
| 20260901073045 | 58 | 123 | 3.0 | 3.0 | 0.00 | 0.00 | 0.00 | 94 | 1023.1 |
| 20260901072108 | 58 | 124 | 3.0 | 4.0 | 0.00 | 0.00 | 0.00 | 94 | 1022.9 |
| 20260901071028 | 57 | 105 | 2.0 | 3.0 | 0.00 | 0.00 | 0.00 | 94 | 1022.8 |
| 20260901070052 | 57 | 68 | 0.0 | 1.0 | 0.00 | 0.00 | 0.00 | 94 | 1022.8 |
| 20260901065118 | 57 | 72 | 1.0 | 2.0 | 0.00 | 0.00 | 0.00 | 94 | 1022.8 |
| 20260901064037 | 57 | 0.0 | 0.0 | 0.00 | 0.00 | 0.00 | 95 | 1022.8 | |
| 20260901063100 | 57 | 76 | 1.0 | 2.0 | 0.00 | 0.00 | 0.00 | 95 | 1022.6 |
| 20260901062020 | 57 | 93 | 2.0 | 2.0 | 0.00 | 0.00 | 0.00 | 95 | 1022.5 |
| 20260901061044 | 57 | 94 | 2.0 | 3.0 | 0.00 | 0.00 | 0.00 | 95 | 1022.4 |
| 20260901060128 | 56 | 86 | 2.0 | 3.0 | 0.00 | 0.00 | 0.00 | 95 | 1022.2 |
| 20260901055029 | 56 | 107 | 2.0 | 3.0 | 0.00 | 0.00 | 0.00 | 95 | 1022.3 |
| 20260901054053 | 57 | 95 | 2.0 | 3.0 | 0.00 | 0.00 | 0.00 | 94 | 1022.3 |
| 20260901053117 | 57 | 115 | 2.0 | 4.0 | 0.00 | 0.00 | 0.00 | 94 | 1022.1 |
| 20260901052037 | 57 | 110 | 2.0 | 4.0 | 0.00 | 0.00 | 0.00 | 94 | 1022.1 |
| 20260901051101 | 57 | 109 | 3.0 | 6.0 | 0.00 | 0.00 | 0.00 | 94 | 1022.2 |
| 20260901050021 | 57 | 127 | 3.0 | 4.0 | 0.00 | 0.00 | 0.00 | 94 | 1022.2 |
| 20260901045044 | 57 | 115 | 2.0 | 4.0 | 0.00 | 0.00 | 0.00 | 94 | 1022.3 |
| 20260901044108 | 57 | 109 | 2.0 | 6.0 | 0.00 | 0.00 | 0.00 | 94 | 1022.3 |
| 20260901043029 | 57 | 123 | 3.0 | 6.0 | 0.00 | 0.00 | 0.00 | 94 | 1022.2 |
| 20260901042053 | 58 | 108 | 2.0 | 4.0 | 0.00 | 0.00 | 0.00 | 94 | 1022.1 |
| 20260901041116 | 58 | 106 | 2.0 | 3.0 | 0.00 | 0.00 | 0.00 | 94 | 1022.2 |
| 20260901040037 | 58 | 108 | 2.0 | 4.0 | 0.00 | 0.00 | 0.00 | 94 | 1022.2 |
| 20260901035100 | 58 | 115 | 2.0 | 3.0 | 0.00 | 0.00 | 0.00 | 94 | 1022.3 |
| 20260901034020 | 58 | 104 | 2.0 | 3.0 | 0.00 | 0.00 | 0.00 | 94 | 1022.3 |
| 20260901033045 | 58 | 104 | 2.0 | 3.0 | 0.00 | 0.00 | 0.00 | 93 | 1022.3 |
| 20260901032129 | 59 | 110 | 2.0 | 3.0 | 0.00 | 0.00 | 0.00 | 93 | 1022.4 |
| 20260901031028 | 59 | 90 | 1.0 | 2.0 | 0.00 | 0.00 | 0.00 | 93 | 1022.4 |
| 20260901030052 | 59 | 87 | 1.0 | 2.0 | 0.00 | 0.00 | 0.00 | 93 | 1022.3 |
| 20260901025116 | 59 | 85 | 1.0 | 2.0 | 0.00 | 0.00 | 0.00 | 93 | 1022.3 |
| 20260901024036 | 59 | 79 | 1.0 | 2.0 | 0.00 | 0.00 | 0.00 | 92 | 1022.5 |
| 20260901023100 | 59 | 82 | 1.0 | 2.0 | 0.00 | 0.00 | 0.00 | 92 | 1022.5 |
| 20260901022101 | 59 | 81 | 1.0 | 2.0 | 0.00 | 0.00 | 0.00 | 92 | 1022.4 |
| 20260901021105 | 60 | 78 | 1.0 | 2.0 | 0.00 | 0.00 | 0.00 | 91 | 1022.6 |
| 20260901020128 | 60 | 0.0 | 0.0 | 0.00 | 0.00 | 0.00 | 91 | 1022.6 | |
| 20260901015029 | 60 | 62 | 0.0 | 1.0 | 0.00 | 0.00 | 0.00 | 91 | 1022.8 |
| 20260901014053 | 60 | 38 | 0.0 | 1.0 | 0.00 | 0.00 | 0.00 | 91 | 1023.0 |
| 20260901013116 | 61 | 56 | 0.0 | 1.0 | 0.00 | 0.00 | 0.00 | 91 | 1022.9 |
| 20260901012037 | 61 | 0.0 | 0.0 | 0.00 | 0.00 | 0.00 | 90 | 1023.0 | |
| 20260901011101 | 61 | 0.0 | 0.0 | 0.00 | 0.00 | 0.00 | 90 | 1023.1 | |
| 20260901010020 | 61 | 0.0 | 0.0 | 0.00 | 0.00 | 0.00 | 90 | 1023.2 | |
| 20260901005044 | 61 | 0.0 | 0.0 | 0.00 | 0.00 | 0.00 | 89 | 1023.2 | |
| 20260901004129 | 61 | 38 | 0.0 | 1.0 | 0.00 | 0.00 | 0.00 | 89 | 1023.1 |
| 20260901003029 | 62 | 0.0 | 0.0 | 0.00 | 0.00 | 0.00 | 89 | 1023.2 | |
| 20260901002053 | 62 | 47 | 0.0 | 1.0 | 0.00 | 0.00 | 0.00 | 89 | 1023.5 |
| 20260901001117 | 63 | 20 | 1.0 | 2.0 | 0.00 | 0.00 | 0.00 | 89 | 1023.6 |
| 20260901000036 | 63 | 43 | 0.0 | 1.0 | 0.00 | 0.00 | 0.00 | 88 | 1023.6 |
| 20260831235120 | 62 | 38 | 0.0 | 1.0 | 0.00 | 0.00 | 0.00 | 88 | 1023.5 |
| 20260831234020 | 62 | 36 | 1.0 | 2.0 | 0.00 | 0.00 | 0.00 | 88 | 1023.6 |
| 20260831233104 | 62 | 38 | 1.0 | 1.0 | 0.00 | 0.00 | 0.00 | 88 | 1023.6 |
| 20260831232109 | 62 | 0.0 | 0.0 | 0.00 | 0.00 | 0.00 | 88 | 1023.5 | |
| 20260831231029 | 63 | 70 | 0.0 | 1.0 | 0.00 | 0.00 | 0.00 | 88 | 1023.7 |
| 20260831230053 | 63 | 0.0 | 0.0 | 0.00 | 0.00 | 0.00 | 87 | 1023.7 | |
| 20260831225137 | 63 | 40 | 0.0 | 1.0 | 0.00 | 0.00 | 0.00 | 87 | 1023.7 |
| 20260831224037 | 63 | 33 | 1.0 | 2.0 | 0.00 | 0.00 | 0.00 | 87 | 1023.8 |
| 20260831223100 | 63 | 42 | 0.0 | 1.0 | 0.00 | 0.00 | 0.00 | 87 | 1023.9 |
| 20260831222021 | 63 | 25 | 1.0 | 2.0 | 0.00 | 0.00 | 0.00 | 88 | 1024.0 |
| 20260831221044 | 63 | 42 | 0.0 | 1.0 | 0.00 | 0.00 | 0.00 | 88 | 1024.0 |
| 20260831220109 | 64 | 41 | 0.0 | 1.0 | 0.00 | 0.00 | 0.00 | 88 | 1024.3 |
| 20260831215028 | 64 | 31 | 1.0 | 2.0 | 0.00 | 0.00 | 0.00 | 87 | 1024.2 |
| 20260831214052 | 64 | 0.0 | 0.0 | 0.00 | 0.00 | 0.00 | 87 | 1024.2 | |
| 20260831213116 | 64 | 0.0 | 1.0 | 0.00 | 0.00 | 0.00 | 87 | 1024.3 | |
| 20260831212037 | 64 | 29 | 1.0 | 2.0 | 0.00 | 0.00 | 0.00 | 87 | 1024.3 |
| 20260831211121 | 64 | 357 | 1.0 | 3.0 | 0.00 | 0.00 | 0.00 | 87 | 1024.3 |
| 20260831210020 | 64 | 39 | 0.0 | 1.0 | 0.00 | 0.00 | 0.00 | 87 | 1024.3 |
| 20260831205125 | 64 | 37 | 0.0 | 1.0 | 0.00 | 0.00 | 0.00 | 87 | 1024.2 |
| 20260831204128 | 65 | 18 | 1.0 | 3.0 | 0.00 | 0.00 | 0.00 | 87 | 1024.3 |
| 20260831203028 | 65 | 21 | 1.0 | 3.0 | 0.00 | 0.00 | 0.00 | 87 | 1024.2 |
| 20260831202052 | 65 | 32 | 1.0 | 2.0 | 0.00 | 0.00 | 0.00 | 86 | 1024.0 |
| 20260831201117 | 65 | 45 | 1.0 | 3.0 | 0.00 | 0.00 | 0.00 | 86 | 1024.1 |
| 20260831200057 | 65 | 9 | 1.0 | 2.0 | 0.00 | 0.00 | 0.00 | 85 | 1024.0 |
| 20260831195100 | 66 | 14 | 2.0 | 6.0 | 0.00 | 0.00 | 0.00 | 84 | 1023.9 |
| 20260831194020 | 66 | 5 | 2.0 | 6.0 | 0.00 | 0.00 | 0.00 | 83 | 1023.7 |
| 20260831193104 | 66 | 6 | 3.0 | 6.0 | 0.00 | 0.00 | 0.00 | 83 | 1023.8 |
| 20260831192128 | 66 | 343 | 3.0 | 7.0 | 0.00 | 0.00 | 0.00 | 83 | 1023.6 |
| 20260831191030 | 66 | 346 | 5.0 | 9.0 | 0.00 | 0.00 | 0.00 | 83 | 1023.6 |
| 20260831190052 | 66 | 6 | 2.0 | 7.0 | 0.00 | 0.00 | 0.00 | 84 | 1023.6 |
| 20260831185116 | 67 | 350 | 3.0 | 8.0 | 0.00 | 0.00 | 0.00 | 84 | 1023.7 |
| 20260831184036 | 67 | 357 | 3.0 | 9.0 | 0.00 | 0.00 | 0.00 | 83 | 1023.6 |
| 20260831183101 | 66 | 11 | 3.0 | 8.0 | 0.00 | 0.00 | 0.00 | 83 | 1023.6 |
| 20260831182020 | 67 | 7 | 3.0 | 7.0 | 0.00 | 0.00 | 0.00 | 82 | 1023.7 |
| 20260831181105 | 67 | 1 | 3.0 | 9.0 | 0.00 | 0.00 | 0.00 | 82 | 1023.6 |
| 20260831180109 | 67 | 348 | 3.0 | 9.0 | 0.00 | 0.00 | 0.00 | 81 | 1023.6 |
| 20260831175029 | 67 | 6 | 3.0 | 9.0 | 0.00 | 0.00 | 0.00 | 81 | 1023.6 |
| 20260831174052 | 68 | 353 | 3.0 | 10.0 | 0.00 | 0.00 | 0.00 | 80 | 1023.6 |
| 20260831173138 | 69 | 11 | 3.0 | 7.0 | 0.00 | 0.00 | 0.00 | 78 | 1023.6 |
| 20260831172037 | 69 | 1 | 3.0 | 7.0 | 0.00 | 0.00 | 0.00 | 76 | 1023.5 |
| 20260831171101 | 70 | 11 | 4.0 | 8.0 | 0.00 | 0.00 | 0.00 | 74 | 1023.5 |
| 20260831170020 | 72 | 10 | 2.0 | 7.0 | 0.00 | 0.00 | 0.00 | 72 | 1023.5 |
| 20260831165044 | 71 | 344 | 5.0 | 9.0 | 0.00 | 0.00 | 0.00 | 72 | 1023.5 |
| 20260831164108 | 71 | 353 | 4.0 | 7.0 | 0.00 | 0.00 | 0.00 | 72 | 1023.5 |
| 20260831163029 | 72 | 339 | 3.0 | 7.0 | 0.00 | 0.00 | 0.00 | 70 | 1023.4 |
| 20260831162053 | 72 | 359 | 4.0 | 8.0 | 0.00 | 0.00 | 0.00 | 69 | 1023.5 |
| 20260831161116 | 72 | 355 | 4.0 | 7.0 | 0.00 | 0.00 | 0.00 | 67 | 1023.6 |
| 20260831160036 | 72 | 14 | 3.0 | 7.0 | 0.00 | 0.00 | 0.00 | 69 | 1023.5 |
| 20260831155100 | 72 | 353 | 5.0 | 10.0 | 0.00 | 0.00 | 0.00 | 72 | 1023.5 |
| 20260831154020 | 73 | 20 | 5.0 | 10.0 | 0.00 | 0.00 | 0.00 | 69 | 1023.5 |
| 20260831153045 | 73 | 27 | 3.0 | 7.0 | 0.00 | 0.00 | 0.00 | 69 | 1023.6 |
| 20260831152109 | 73 | 9 | 4.0 | 9.0 | 0.00 | 0.00 | 0.00 | 71 | 1023.7 |
| 20260831151028 | 72 | 354 | 4.0 | 7.0 | 0.00 | 0.00 | 0.00 | 70 | 1023.7 |
| 20260831150052 | 73 | 42 | 3.0 | 9.0 | 0.00 | 0.00 | 0.00 | 68 | 1023.9 |
| 20260831145116 | 73 | 54 | 3.0 | 7.0 | 0.00 | 0.00 | 0.00 | 69 | 1023.9 |
| 20260831144036 | 73 | 1 | 4.0 | 10.0 | 0.00 | 0.00 | 0.00 | 69 | 1024.0 |
| 20260831143101 | 73 | 337 | 4.0 | 10.0 | 0.00 | 0.00 | 0.00 | 69 | 1024.1 |
| 20260831142021 | 73 | 352 | 3.0 | 6.0 | 0.00 | 0.00 | 0.00 | 66 | 1024.2 |
| 20260831141044 | 73 | 5 | 3.0 | 8.0 | 0.00 | 0.00 | 0.00 | 65 | 1024.0 |
| 20260831140109 | 73 | 3 | 5.0 | 10.0 | 0.00 | 0.00 | 0.00 | 64 | 1024.2 |
| 20260831135028 | 73 | 343 | 5.0 | 10.0 | 0.00 | 0.00 | 0.00 | 59 | 1024.2 |
| 20260831134053 | 74 | 358 | 3.0 | 9.0 | 0.00 | 0.00 | 0.00 | 60 | 1024.2 |
| 20260831133116 | 74 | 342 | 6.0 | 8.0 | 0.00 | 0.00 | 0.00 | 60 | 1024.2 |
| 20260831132036 | 75 | 357 | 4.0 | 8.0 | 0.00 | 0.00 | 0.00 | 60 | 1024.2 |
| 20260831131100 | 74 | 337 | 3.0 | 9.0 | 0.00 | 0.00 | 0.00 | 60 | 1024.2 |
| 20260831130020 | 75 | 31 | 2.0 | 6.0 | 0.00 | 0.00 | 0.00 | 60 | 1024.3 |
| 20260831125045 | 74 | 5 | 3.0 | 9.0 | 0.00 | 0.00 | 0.00 | 61 | 1024.3 |
| 20260831124109 | 74 | 14 | 2.0 | 6.0 | 0.00 | 0.00 | 0.00 | 59 | 1024.4 |
| 20260831123028 | 73 | 356 | 3.0 | 8.0 | 0.00 | 0.00 | 0.00 | 62 | 1024.4 |
| 20260831122054 | 74 | 354 | 3.0 | 6.0 | 0.00 | 0.00 | 0.00 | 61 | 1024.5 |
| 20260831121117 | 73 | 1 | 4.0 | 7.0 | 0.00 | 0.00 | 0.00 | 63 | 1024.5 |
| 20260831120101 | 73 | 40 | 2.0 | 6.0 | 0.00 | 0.00 | 0.00 | 62 | 1024.5 |
| 20260831115100 | 73 | 57 | 3.0 | 6.0 | 0.00 | 0.00 | 0.00 | 66 | 1024.6 |
| 20260831114021 | 73 | 41 | 3.0 | 6.0 | 0.00 | 0.00 | 0.00 | 67 | 1024.8 |
| 20260831113045 | 73 | 44 | 2.0 | 6.0 | 0.00 | 0.00 | 0.00 | 67 | 1024.8 |
| 20260831112109 | 73 | 37 | 2.0 | 4.0 | 0.00 | 0.00 | 0.00 | 68 | 1024.8 |
| 20260831111028 | 74 | 36 | 2.0 | 6.0 | 0.00 | 0.00 | 0.00 | 63 | 1024.8 |
| 20260831110053 | 73 | 79 | 2.0 | 6.0 | 0.00 | 0.00 | 0.00 | 67 | 1024.7 |
| 20260831105116 | 72 | 26 | 2.0 | 6.0 | 0.00 | 0.00 | 0.00 | 68 | 1024.7 |
| 20260831104036 | 73 | 58 | 2.0 | 6.0 | 0.00 | 0.00 | 0.00 | 61 | 1024.6 |